Regional Weather Roundup
Issued by NWS Little Rock, AR

Home | Current Version | Previous Version | Text Only | Print | Product List | Glossary Off
Versions: 1 2 3 4 5 6 7 8 9 10 11 12 13 14 15 16 17 18 19 20 21 22 23 24 25

339
ASUS44 KLZK 211105
RWRLZK

WEATHER ROUNDUP FOR ARKANSAS
NATIONAL WEATHER SERVICE LITTLE ROCK AR
600 AM CDT THU MAY 21 2015

NOTE: "FAIR" INDICATES FEW OR NO CLOUDS BELOW 12,000 FEET WITH NO
SIGNIFICANT WEATHER AND/OR OBSTRUCTIONS TO VISIBILITY.

ARZ001-003-010-029-211200-
NORTHWEST ARKANSAS

CITY           SKY/WX    TMP DP  RH WIND       PRES   REMARKS
FAYETTEVILLE   CLEAR     48  46  93 N7        30.18F
FORT SMITH     MOCLDY    57  47  69 N10       30.18R
HARRISON       CLOUDY    48  45  89 NW5       30.19S
BENTONVILLE    CLOUDY    46  43  87 NE8       30.21R
ROGERS         CLOUDY    46  45  96 N9        30.22S
SILOAM SPGS    CLEAR     46  39  76 N6        30.22S
HIGHFILL       CLOUDY    48  45  89 NE9       30.20S
SPRINGDALE     PTCLDY    46  45  93 N12       30.21
$$

ARZ004-005-016-211200-
NORTH CENTRAL ARKANSAS

CITY           SKY/WX    TMP DP  RH WIND       PRES   REMARKS
BATESVILLE     MOCLDY    52  45  76 N6        30.16S
FLIPPIN        CLOUDY    52  45  76 N7        30.18R
MTN HOME       CLOUDY    50  45  83 VRB3      30.18S
$$

ARZ040-041-211200-
WEST CENTRAL ARKANSAS

CITY           SKY/WX    TMP DP  RH WIND       PRES   REMARKS
MENA           CLOUDY    59  54  82 N5        30.16R
MOUNT IDA      CLOUDY    59  52  77 VRB3      30.13R
$$

ARZ009-017-025-026-028-211200-
NORTHEAST ARKANSAS

CITY           SKY/WX    TMP DP  RH WIND       PRES   REMARKS
CORNING        CLOUDY    50  46  87 N10       30.18R
JONESBORO      CLOUDY    50  46  86 N12G21    30.16R
NEWPORT        CLOUDY    52  47  83 N14       30.18R
WALNUT RIDGE   CLOUDY    52  43  71 N18       30.17R
BLYTHEVILLE    CLOUDY    51  48  89 N13G23    30.15R
$$

ARZ022-023-033-042-044-211200-
CENTRAL ARKANSAS

CITY           SKY/WX    TMP DP  RH WIND       PRES   REMARKS
LITTLE ROCK    CLOUDY    59  51  75 N8        30.15R
N LITTLE ROCK    N/A     57  53  85 N12G17    30.15R
JACKSONVILLE   CLOUDY    57  52  82 N8        30.14S
SEARCY         CLOUDY    57  49  74 N9        30.17R
HOT SPRINGS    CLOUDY    61  53  75 N5        30.13R
RUSSELLVILLE   CLOUDY    57  47  69 NE9       30.17R
CLINTON        CLOUDY    55  48  76 NE3       30.18S
$$

ARZ036-211200-
EAST ARKANSAS

CITY           SKY/WX    TMP DP  RH WIND       PRES   REMARKS
WEST MEMPHIS   CLOUDY    54  50  86 N12       30.12R
$$

ARZ050-053-066-070-073-211200-
SOUTHWEST ARKANSAS

CITY           SKY/WX    TMP DP  RH WIND       PRES   REMARKS
ARKADELPHIA    CLOUDY    63  60  90 NE6       30.12R
CAMDEN         RAIN      63  55  77 N7        30.10R
TEXARKANA      TSTM      59  59 100 NE9       30.09R
EL DORADO      CLOUDY    65  60  84 N9        30.09R
DE QUEEN       CLOUDY    59  56  89 NE6       30.10R
$$

ARZ056-057-069-211200-
SOUTHEAST ARKANSAS

CITY           SKY/WX    TMP DP  RH WIND       PRES   REMARKS
PINE BLUFF     LGT RAIN  61  59  93 N15       30.11R
STUTTGART      CLOUDY    57  52  82 N15G22    30.13R
MONTICELLO     CLOUDY    65  60  84 NE5       30.07R

$$





USA.gov is the U.S. government's official web portal to all federal, state and local government web resources and services.